User: anonymous   Login
Location: Unspecified
(0.0000°N, 0.0000°E)
Time: 16:54:29
(UTC+01:00)
Language:

Cosmos 2219 - Orbit

View from above orbital plane
View from above orbital plane
View from above satellite
View from above satellite

Ground track
Ground track

The orbit data is extracted from the following two-line orbital elements,

1 22219U 92076A   17050.52213802 -.00000212  00000-0 -87242-4 0  9990
2 22219  71.0602  83.5026 0019600 216.4265 143.5525 14.13610463251585
Epoch (UTC): 19 February 2017 12:31:52
Eccentricity: 0.0019600
inclination: 71.0602°
perigee height: 833 km
apogee height: 861 km
right ascension of ascending node: 83.5026°
argument of perigee: 216.4265°
revolutions per day: 14.13610463
mean anomaly at epoch: 143.5525°
orbit number at epoch: 25158

The dashed part of the orbit path shows where the satellite is in the earth's shadow,  

DLR